Date String (YYYY-MM-DD hh:mm:ss) UTC,Instrument flags,Ambient pressure (hPa),Sample flow (lpm),Bypass flow (lpm),Sample temperature (°C),Ambient temperature (°C),ASC tube jacket temperature (°C),LED temperature (°C),Box temperature (°C),Sample RH (%),Span deviation,Mass concentration (μg/m³),Mass concentration (μg/m³),Mass concentration (μg/m³)
DateTimeUTC,F1_M11,P_M11,Q1_M11,Q2_M11,T1_M11,T2_M11,T3_M11,T4_M11,T5_M11,U1_M11,ZSPAN_M11,X2_M11,X0_M11,X1_M11
2022-02-03 05:00:00,,0829.3,5.00,0.00,22.3,21.5,00.0,31.2,23.9,04.4,0000.0,0003.87,0007.38,0003.53
2022-02-03 05:01:00,,0829.3,5.01,0.00,22.2,21.2,00.0,31.2,23.8,04.4,0000.0,0003.85,0007.16,0003.51
2022-02-03 05:02:00,,0829.3,5.00,0.00,22.2,21.1,00.0,31.2,23.8,04.5,0000.0,0003.83,0007.16,0003.49
2022-02-03 05:03:00,,0829.1,5.01,0.00,22.1,21.1,00.0,31.2,23.7,04.5,0000.0,0003.78,0007.08,0003.44
2022-02-03 05:04:00,,0829.0,5.00,0.00,22.2,21.8,00.0,31.2,23.9,04.5,0000.0,0003.71,0006.82,0003.38
2022-02-03 05:05:00,,0828.8,4.99,0.00,22.3,22.6,00.0,31.2,24.1,04.4,0000.0,0003.66,0006.66,0003.35
2022-02-03 05:06:00,,0828.8,5.01,0.00,22.4,23.0,00.0,31.2,24.3,04.4,0000.0,0003.60,0006.46,0003.31
2022-02-03 05:07:00,,0829.1,5.00,0.00,22.4,22.6,00.0,31.3,24.2,04.4,0000.0,0003.57,0006.81,0003.29
2022-02-03 05:08:00,,0828.8,4.99,0.00,22.4,22.2,00.0,31.3,24.1,04.4,0000.0,0003.56,0006.90,0003.28
2022-02-03 05:09:00,,0828.9,5.01,0.00,22.3,21.8,00.0,31.3,24.0,04.4,0000.0,0003.58,0006.24,0003.28
2022-02-03 05:10:00,,0828.8,5.00,0.00,22.3,21.5,00.0,31.2,23.9,04.4,0000.0,0003.58,0006.48,0003.29
2022-02-03 05:11:00,,0828.8,5.00,0.00,22.2,21.4,00.0,31.2,23.9,04.4,0000.0,0003.61,0006.51,0003.29
2022-02-03 05:12:00,,0828.9,5.00,0.00,22.2,21.2,00.0,31.2,23.8,04.4,0000.0,0003.58,0006.22,0003.28
2022-02-03 05:13:00,,0829.0,5.00,0.00,22.1,21.1,00.0,31.2,23.7,04.4,0000.0,0003.54,0006.12,0003.27
2022-02-03 05:14:00,,0828.8,5.00,0.00,22.1,21.3,00.0,31.2,23.7,04.4,0000.0,0003.53,0007.11,0003.28
2022-02-03 05:15:00,,0828.8,5.00,0.00,22.2,22.1,00.0,31.2,24.0,04.4,0000.0,0003.55,0007.96,0003.31
2022-02-03 05:16:00,,0828.8,4.99,0.00,22.4,22.9,00.0,31.3,24.2,04.4,0000.0,0003.60,0008.03,0003.34
2022-02-03 05:17:00,,0828.9,5.01,0.00,22.5,23.0,00.0,31.3,24.4,04.3,0000.0,0003.63,0008.09,0003.37
2022-02-03 05:18:00,,0828.9,5.00,0.00,22.5,22.6,00.0,31.3,24.3,04.3,0000.0,0003.67,0008.17,0003.40
2022-02-03 05:19:00,,0828.9,5.00,0.00,22.5,22.3,00.0,31.3,24.2,04.3,0000.0,0003.69,0008.83,0003.42
2022-02-03 05:20:00,,0828.9,4.99,0.00,22.4,22.0,00.0,31.3,24.1,04.3,0000.0,0003.70,0008.98,0003.45
2022-02-03 05:21:00,,0828.8,5.01,0.00,22.4,21.8,00.0,31.3,24.1,04.3,0000.0,0003.72,0009.10,0003.48
2022-02-03 05:22:00,,0828.8,4.99,0.00,22.3,21.6,00.0,31.3,24.0,04.3,0000.0,0003.73,0009.09,0003.49
2022-02-03 05:23:00,,0828.9,5.02,0.00,22.3,21.4,00.0,31.3,23.9,04.3,0000.0,0003.77,0009.20,0003.50
2022-02-03 05:24:00,,0829.3,4.99,0.00,22.2,21.3,00.0,31.3,23.9,04.3,0000.0,0003.81,0009.24,0003.51
2022-02-03 05:25:00,,0829.3,5.01,0.00,22.2,21.3,00.0,31.2,23.8,04.3,0000.0,0003.82,0008.53,0003.52
2022-02-03 05:26:00,,0828.9,5.00,0.00,22.3,22.1,00.0,31.3,24.0,04.3,0000.0,0003.82,0007.93,0003.52
2022-02-03 05:27:00,,0828.7,5.00,0.00,22.4,22.8,00.0,31.3,24.2,04.3,0000.0,0003.81,0007.92,0003.53
2022-02-03 05:28:00,,0828.7,4.98,0.00,22.5,23.0,00.0,31.3,24.3,04.3,0000.0,0003.81,0007.93,0003.54
2022-02-03 05:29:00,,0828.7,5.00,0.00,22.5,22.7,00.0,31.3,24.3,04.3,0000.0,0003.80,0008.13,0003.55
2022-02-03 05:30:00,,0828.7,5.01,0.00,22.5,22.3,00.0,31.4,24.3,04.3,0000.0,0003.80,0007.37,0003.57
2022-02-03 05:31:00,,0828.7,4.99,0.00,22.5,22.0,00.0,31.4,24.2,04.3,0000.0,0003.82,0007.07,0003.59
2022-02-03 05:32:00,,0828.8,5.00,0.00,22.4,21.8,00.0,31.3,24.1,04.3,0000.0,0003.83,0006.36,0003.60
2022-02-03 05:33:00,,0828.6,5.01,0.00,22.4,21.6,00.0,31.3,24.0,04.3,0000.0,0003.86,0006.34,0003.62
2022-02-03 05:34:00,,0828.6,4.99,0.00,22.3,21.4,00.0,31.3,24.0,04.3,0000.0,0003.84,0006.23,0003.64
2022-02-03 05:35:00,,0828.6,5.01,0.00,22.3,21.3,00.0,31.3,23.9,04.3,0000.0,0003.82,0006.08,0003.64
2022-02-03 05:36:00,,0828.6,5.01,0.00,22.3,21.6,00.0,31.3,23.9,04.3,0000.0,0003.82,0006.12,0003.64
2022-02-03 05:37:00,,0828.7,4.98,0.00,22.4,22.3,00.0,31.3,24.1,04.3,0000.0,0003.84,0006.24,0003.64
2022-02-03 05:38:00,,0828.7,5.01,0.00,22.5,23.0,00.0,31.4,24.3,04.3,0000.0,0003.84,0006.82,0003.64
2022-02-03 05:39:00,,0828.7,4.99,0.00,22.6,23.3,00.0,31.4,24.5,04.3,0000.0,0003.83,0006.99,0003.64
2022-02-03 05:40:00,,0828.6,5.01,0.00,22.6,23.0,00.0,31.4,24.5,04.2,0000.0,0003.84,0006.37,0003.64
2022-02-03 05:41:00,,0828.7,5.01,0.00,22.6,22.6,00.0,31.4,24.4,04.2,0000.0,0003.83,0006.07,0003.63
2022-02-03 05:42:00,,0828.7,4.99,0.00,22.6,22.3,00.0,31.4,24.3,04.3,0000.0,0003.82,0006.08,0003.62
2022-02-03 05:43:00,,0828.6,5.01,0.00,22.5,22.0,00.0,31.4,24.2,04.3,0000.0,0003.81,0006.10,0003.62
2022-02-03 05:44:00,,0828.5,5.00,0.00,22.5,21.8,00.0,31.4,24.1,04.3,0000.0,0003.83,0006.10,0003.63
2022-02-03 05:45:00,,0828.6,4.99,0.00,22.4,21.6,00.0,31.4,24.1,04.3,0000.0,0003.85,0006.18,0003.64
2022-02-03 05:46:00,,0828.6,5.02,0.00,22.4,21.5,00.0,31.4,24.0,04.3,0000.0,0003.89,0006.35,0003.66
2022-02-03 05:47:00,,0828.6,4.99,0.00,22.3,21.3,00.0,31.4,24.0,04.3,0000.0,0003.92,0006.42,0003.67
2022-02-03 05:48:00,,0828.6,5.01,0.00,22.3,21.4,00.0,31.4,23.9,04.3,0000.0,0003.91,0006.28,0003.68
2022-02-03 05:49:00,,0828.6,4.99,0.00,22.4,22.1,00.0,31.4,24.1,04.3,0000.0,0003.93,0005.81,0003.68
2022-02-03 05:50:00,,0828.6,5.01,0.00,22.5,22.9,00.0,31.4,24.3,04.3,0000.0,0003.95,0005.59,0003.68
2022-02-03 05:51:00,,0828.7,4.99,0.00,22.6,23.4,00.0,31.4,24.5,04.3,0000.0,0003.93,0005.47,0003.68
2022-02-03 05:52:00,,0828.7,5.00,0.00,22.7,23.2,00.0,31.5,24.5,04.2,0000.0,0003.94,0005.52,0003.67
2022-02-03 05:53:00,,0829.0,5.00,0.00,22.7,22.8,00.0,31.5,24.5,04.2,0000.0,0003.94,0005.56,0003.67
2022-02-03 05:54:00,,0829.1,5.01,0.00,22.6,22.4,00.0,31.5,24.4,04.2,0000.0,0003.94,0005.60,0003.67
2022-02-03 05:55:00,,0829.0,4.99,0.00,22.6,22.1,00.0,31.5,24.3,04.2,0000.0,0003.91,0005.52,0003.65
2022-02-03 05:56:00,,0828.9,5.02,0.00,22.5,21.8,00.0,31.5,24.2,04.2,0000.0,0003.90,0005.47,0003.64
2022-02-03 05:57:00,,0829.0,4.98,0.00,22.5,21.6,00.0,31.5,24.1,04.3,0000.0,0003.88,0005.31,0003.64
2022-02-03 05:58:00,,0829.0,5.01,0.00,22.4,21.5,00.0,31.4,24.0,04.3,0000.0,0003.86,0005.25,0003.63
2022-02-03 05:59:00,,0828.9,4.99,0.00,22.4,21.4,00.0,31.4,24.0,04.3,0000.0,0003.84,0005.18,0003.62
